This demonstration page uses our WeatherBlox Daily Observations layout. Learn more.

Left ArrowRight Arrow

40.92945, -100.16068

Hourly Observations for September 28, 2017

Temp ( °F °C ) Dew Point ( °F °C ) Humidity (%) Winds ( mph kmh ) Pressure ( in mb ) Visibility ( mi km ) Precip ( " mm )
12:15 am 00:15 Clear 51 10.7 47 8.5 86 86 Calm 30.27 1025 10 16 0.00 0.00
12:35 am 00:35 Clear 51 10.3 47 8.1 86 86 Calm 30.27 1025 10 16 0.00 0.00
12:55 am 00:55 Clear 50 10.2 46 8 86 86 Calm 30.27 1025 10 16 0.00 0.00
1:15 am 01:15 Clear 51 10.4 47 8.5 88 88 Calm 30.27 1025 10 16 0.00 0.00
1:40 am 01:40 Clear 52 11 48 9.1 88 88 Calm 30.27 1025 10 16 0.00 0.00
1:55 am 01:55 Clear 52 11.2 49 9.5 89 89 Calm 30.30 1026 10 16 0.00 0.00
2:15 am 02:15 Clear 52 11.2 49 9.6 90 90 Calm 30.30 1026 10 16 0.00 0.00
2:35 am 02:35 Clear 53 11.5 50 10 91 91 Calm 30.30 1026 10 16 0.00 0.00
2:55 am 02:55 Clear 53 11.4 49 9.2 86 86 Calm 30.30 1026 10 16 0.00 0.00
3:15 am 03:15 Clear 52 10.9 48 9.1 89 89 Calm 30.30 1026 10 16 0.00 0.00
3:35 am 03:35 Clear 51 10.7 48 9.1 90 90 Calm 30.30 1026 10 16 0.00 0.00
3:55 am 03:55 Clear 51 10.8 49 9.3 91 91 Calm 30.27 1025 10 16 0.00 0.00
4:15 am 04:15 Clear 52 11 49 9.4 90 90 Calm 30.27 1025 10 16 0.00 0.00
4:35 am 04:35 Clear 52 11 49 9.5 91 91 Calm 30.27 1025 10 16 0.00 0.00
4:55 am 04:55 Clear 52 11.2 50 9.8 91 91 Calm 30.27 1025 7 11 0.00 0.00
5:15 am 05:15 Clear 52 11.3 50 9.8 91 91 Calm 30.27 1025 10 16 0.00 0.00
5:35 am 05:35 Clear 52 10.9 49 9.3 90 90 Calm 30.27 1025 10 16 0.00 0.00
5:55 am 05:55 Clear 50 10.1 48 8.9 92 92 Calm 30.30 1026 10 16 0.00 0.00
6:15 am 06:15 Clear 50 10 48 8.8 92 92 NW 3 6 30.30 1026 10 16 0.00 0.00
6:35 am 06:35 Clear 49 9.5 47 8.5 94 94 WNW 5 7 30.30 1026 10 16 0.00 0.00
6:55 am 06:55 Clear 49 9.3 47 8.3 94 94 Calm 30.33 1027 10 16 0.00 0.00
7:15 am 07:15 Clear 49 9.3 47 8.5 95 95 Calm 30.33 1027 10 16 0.00 0.00
7:35 am 07:35 Sunny 49 9.7 48 8.7 94 94 WNW 3 6 30.30 1026 10 16 0.00 0.00
7:55 am 07:55 Sunny 49 9.3 47 8.3 94 94 W 3 6 30.33 1027 10 16 0.00 0.00
8:15 am 08:15 Sunny 49 9.5 47 8.5 94 94 Calm 30.30 1026 10 16 0.00 0.00
8:35 am 08:35 Sunny 51 10.8 49 9.6 92 92 Calm 30.30 1026 10 16 0.00 0.00
8:55 am 08:55 Sunny 54 12 49 9.5 85 85 Calm 30.30 1026 10 16 0.00 0.00
9:15 am 09:15 Sunny 55 12.5 50 10 85 85 Calm 30.33 1027 10 16 0.00 0.00
9:35 am 09:35 Sunny 55 13 51 10.3 84 84 Calm 30.30 1026 10 16 0.00 0.00
9:55 am 09:55 Sunny 56 13.6 51 10.4 81 81 WNW 3 6 30.30 1026 10 16 0.00 0.00
10:15 am 10:15 Sunny 59 14.8 50 10 73 73 Calm 30.30 1026 10 16 0.00 0.00
10:35 am 10:35 Sunny 62 16.6 50 10 65 65 NW 3 6 30.27 1025 10 16 0.00 0.00
10:55 am 10:55 Sunny 63 17.4 50 10.2 63 63 Calm 30.24 1024 10 16 0.00 0.00
11:15 am 11:15 Sunny 66 19.1 51 10.3 57 57 Calm 30.24 1024 10 16 0.00 0.00
11:35 am 11:35 Sunny 69 20.5 47 8.5 46 46 Calm 30.21 1023 10 16 0.00 0.00
11:55 am 11:55 Sunny 69 20.8 47 8.6 46 46 Calm 30.21 1023 10 16 0.00 0.00
12:15 pm 12:15 Sunny 72 22 45 7 38 38 Calm 30.21 1023 10 16 0.00 0.00
12:35 pm 12:35 Sunny 72 22.2 43 6 35 35 Calm 30.21 1023 10 16 0.00 0.00
12:55 pm 12:55 Sunny 71 21.8 41 4.9 33 33 Calm 30.21 1023 10 16 0.00 0.00
1:15 pm 13:15 Sunny 73 22.6 41 5.2 32 32 Calm 30.21 1023 10 16 0.00 0.00
1:35 pm 13:35 Sunny 72 22.4 41 4.8 32 32 WNW 3 6 30.15 1021 10 16 0.00 0.00
1:55 pm 13:55 Sunny 73 22.5 39 3.9 30 30 Calm 30.15 1021 10 16 0.00 0.00
2:15 pm 14:15 Sunny 73 22.9 40 4.3 30 30 NNW 5 7 30.15 1021 10 16 0.00 0.00
2:35 pm 14:35 Sunny 74 23.1 41 5 31 31 WNW 6 9 30.15 1021 10 16 0.00 0.00
2:55 pm 14:55 Sunny 74 23.2 39 3.9 28 28 NE 5 7 30.15 1021 10 16 0.00 0.00
3:15 pm 15:15 Sunny 74 23.6 39 4 28 28 NW 3 6 30.12 1020 10 16 0.00 0.00
3:35 pm 15:35 Sunny 73 23 40 4.5 30 30 NNW 5 7 30.12 1020 10 16 0.00 0.00
3:55 pm 15:55 Sunny 73 23 39 4.1 29 29 Calm 30.12 1020 10 16 0.00 0.00
4:15 pm 16:15 Sunny 74 23.1 40 4.5 30 30 Calm 30.12 1020 10 16 0.00 0.00
4:35 pm 16:35 Sunny 74 23.3 40 4.7 30 30 Calm 30.12 1020 10 16 0.00 0.00
4:55 pm 16:55 Sunny 74 23.3 42 5.4 31 31 Calm 30.12 1020 10 16 0.00 0.00
5:15 pm 17:15 Sunny 72 22 44 6.6 37 37 NNE 7 11 30.15 1021 10 16 0.00 0.00
5:35 pm 17:35 Hazy 71 21.8 45 7 39 39 N 5 7 30.15 1021 5 8 0.00 0.00
5:55 pm 17:55 Sunny 71 21.6 43 6.1 37 37 NNE 3 6 30.15 1021 10 16 0.00 0.00
6:15 pm 18:15 Sunny 70 21.2 45 7 40 40 NNE 5 7 30.15 1021 10 16 0.00 0.00
6:35 pm 18:35 Sunny 70 21.2 44 6.9 40 40 NNE 3 6 30.15 1021 10 16 0.00 0.00
6:55 pm 18:55 Sunny 69 20.5 47 8.1 45 45 Calm 30.15 1021 10 16 0.00 0.00
7:15 pm 19:15 Sunny 67 19.3 47 8.6 50 50 NNE 3 6 30.15 1021 10 16 0.00 0.00
7:35 pm 19:35 Partly Cloudy 65 18.6 48 9.1 54 54 Calm 30.15 1021 10 16 0.00 0.00
7:55 pm 19:55 Partly Cloudy 63 17.1 50 9.9 63 63 Calm 30.18 1022 7 11 0.00 0.00
8:15 pm 20:15 Mostly Cloudy 62 16.5 51 10.4 67 67 Calm 30.18 1022 10 16 0.00 0.00
8:35 pm 20:35 Mostly Cloudy 61 15.9 51 10.4 70 70 Calm 30.18 1022 10 16 0.00 0.00
8:55 pm 20:55 Mostly Cloudy 61 16.1 49 9.5 65 65 Calm 30.18 1022 10 16 0.00 0.00
9:15 pm 21:15 Cloudy 60 15.7 52 11 74 74 Calm 30.21 1023 10 16 0.00 0.00
9:35 pm 21:35 Cloudy 58 14.6 52 10.9 79 79 N 3 6 30.24 1024 10 16 0.00 0.00
9:55 pm 21:55 Cloudy 60 15.3 51 10.7 74 74 NNW 3 6 30.24 1024 10 16 0.00 0.00
10:15 pm 22:15 Cloudy 59 15.1 53 11.4 79 79 Calm 30.24 1024 10 16 0.00 0.00
10:35 pm 22:35 Cloudy 59 15.2 54 12.2 82 82 Calm 30.24 1024 10 16 0.00 0.00
10:55 pm 22:55 Cloudy 59 15.2 54 12.2 82 82 Calm 30.24 1024 10 16 0.00 0.00
11:15 pm 23:15 Cloudy 59 15.1 52 11 77 77 W 5 7 30.24 1024 10 16 0.00 0.00
11:35 pm 23:35 Cloudy 60 15.3 52 11 76 76 WNW 5 7 30.24 1024 10 16 0.00 0.00
11:55 pm 23:55 Cloudy 60 15.3 52 11.2 77 77 WNW 5 7 30.24 1024 10 16 0.00 0.00

Powered by AerisWeather